• In Austria
  • List of Countries
  • For 7 days
  • Water Temperature
  • Satellite Maps
  • Weather Map
  • News
  • Weather Widgets
  • user-avatar
    Login

    Hourly Weather Kopina

    Today, 25 September, Tuesday

    Time Temperature Precipitation Wind Pressure Humidity
    00:00 +6°C° 0.2 mm 5 mps 759 mmHg 75%
    01:00 +6°C° 0.2 mm 5 mps 759 mmHg 76%
    02:00 +6°C° 0.2 mm 5 mps 760 mmHg 76%
    03:00 +6°C° 0.2 mm 5 mps 760 mmHg 77%
    04:00 +6°C° 0.2 mm 5 mps 761 mmHg 77%
    05:00 +6°C° 0.2 mm 5 mps 761 mmHg 75%
    06:00 +7°C° 0.2 mm 6 mps 762 mmHg 73%
    07:00 +7°C° 0.2 mm 6 mps 763 mmHg 71%
    08:00 +8°C° 0.2 mm 7 mps 763 mmHg 66%
    09:00 +9°C° 0.2 mm 7 mps 764 mmHg 61%
    10:00 +10°C° 0.2 mm 8 mps 765 mmHg 55%
    11:00 +11°C° 0.1 mm 8 mps 765 mmHg 54%
    12:00 +11°C° 0.1 mm 8 mps 766 mmHg 52%
    13:00 +11°C° 0.1 mm 8 mps 766 mmHg 50%
    14:00 +11°C° 0.1 mm 7 mps 766 mmHg 52%
    15:00 +10°C° 0.1 mm 7 mps 767 mmHg 53%
    16:00 +10°C° 0.1 mm 6 mps 767 mmHg 55%
    17:00 +9°C° 0 mm 5 mps 767 mmHg 59%
    18:00 +7°C° 0 mm 4 mps 768 mmHg 63%
    19:00 +7°C° 0 mm 3 mps 768 mmHg 68%
    20:00 +7°C° 0 mm 3 mps 768 mmHg 67%
    21:00 +5°C° 0 mm 3 mps 769 mmHg 66%
    22:00 +5°C° 0 mm 3 mps 769 mmHg 65%
    23:00 +5°C° 0 mm 3 mps 769 mmHg 66%

    Tomorrow, 26 September, Wednesday

    Time Temperature Precipitation Wind Pressure Humidity
    00:00 +5°C° 0 mm 4 mps 769 mmHg 66%
    01:00 +4°C° 0 mm 4 mps 769 mmHg 66%
    02:00 +4°C° 0 mm 4 mps 769 mmHg 70%
    03:00 +4°C° 0 mm 4 mps 768 mmHg 74%
    04:00 +3°C° 0 mm 5 mps 768 mmHg 78%
    05:00 +5°C° 0 mm 5 mps 768 mmHg 77%
    06:00 +6°C° 0 mm 5 mps 768 mmHg 76%
    07:00 +5°C° 0 mm 6 mps 768 mmHg 75%
    08:00 +8°C° 0 mm 7 mps 768 mmHg 70%
    09:00 +9°C° 0 mm 7 mps 767 mmHg 65%
    10:00 +11°C° 0 mm 8 mps 767 mmHg 60%
    11:00 +11°C° 0 mm 8 mps 766 mmHg 60%
    12:00 +12°C° 0 mm 8 mps 765 mmHg 60%
    13:00 +12°C° 0 mm 8 mps 765 mmHg 60%
    14:00 +11°C° 0.6 mm 8 mps 764 mmHg 65%
    15:00 +10°C° 0.6 mm 8 mps 764 mmHg 70%
    16:00 +9°C° 0.6 mm 8 mps 763 mmHg 76%
    17:00 +9°C° 0.4 mm 8 mps 762 mmHg 75%
    18:00 +9°C° 0.4 mm 8 mps 762 mmHg 75%
    19:00 +10°C° 0.4 mm 8 mps 761 mmHg 74%
    20:00 +10°C° 0.2 mm 8 mps 761 mmHg 73%
    21:00 +10°C° 0.2 mm 8 mps 760 mmHg 71%
    22:00 +10°C° 0.2 mm 8 mps 760 mmHg 70%
    23:00 +11°C° 0 mm 8 mps 760 mmHg 70%

    Day after tomorrow, 27 September, Thursday

    Time Temperature Precipitation Wind Pressure Humidity
    00:00 +11°C° 0 mm 9 mps 759 mmHg 71%
    01:00 +12°C° 0 mm 9 mps 759 mmHg 72%
    02:00 +12°C° 0 mm 9 mps 759 mmHg 75%
    03:00 +12°C° 0 mm 9 mps 759 mmHg 79%
    04:00 +12°C° 0 mm 9 mps 758 mmHg 83%
    05:00 +13°C° 0.1 mm 9 mps 759 mmHg 83%
    06:00 +13°C° 0.1 mm 8 mps 759 mmHg 84%
    07:00 +15°C° 0.1 mm 8 mps 759 mmHg 85%
    08:00 +15°C° 0.1 mm 8 mps 759 mmHg 85%
    09:00 +15°C° 0.1 mm 8 mps 759 mmHg 84%
    10:00 +15°C° 0.1 mm 8 mps 760 mmHg 83%
    11:00 +16°C° 0.1 mm 8 mps 760 mmHg 82%
    12:00 +16°C° 0.1 mm 7 mps 760 mmHg 81%
    13:00 +16°C° 0.1 mm 7 mps 760 mmHg 80%
    14:00 +16°C° 0.1 mm 7 mps 760 mmHg 79%
    15:00 +16°C° 0.1 mm 7 mps 760 mmHg 79%
    16:00 +16°C° 0.1 mm 7 mps 760 mmHg 79%
    17:00 +16°C° 0 mm 6 mps 760 mmHg 81%
    18:00 +15°C° 0 mm 6 mps 760 mmHg 84%
    19:00 +14°C° 0 mm 5 mps 760 mmHg 86%
    20:00 +14°C° 0 mm 5 mps 759 mmHg 88%
    21:00 +13°C° 0 mm 5 mps 759 mmHg 89%
    22:00 +13°C° 0 mm 5 mps 758 mmHg 90%
    23:00 +13°C° 0 mm 6 mps 758 mmHg 89%

    28 September, Friday

    Time Temperature Precipitation Wind Pressure Humidity
    00:00 +13°C° 0 mm 6 mps 757 mmHg 88%
    01:00 +14°C° 0 mm 6 mps 756 mmHg 88%
    02:00 +14°C° 0 mm 6 mps 756 mmHg 87%
    03:00 +14°C° 0 mm 6 mps 755 mmHg 87%
    04:00 +14°C° 0 mm 7 mps 755 mmHg 86%
    05:00 +14°C° 0 mm 7 mps 754 mmHg 84%
    06:00 +14°C° 0 mm 7 mps 754 mmHg 82%
    07:00 +14°C° 0 mm 7 mps 754 mmHg 80%
    08:00 +14°C° 0 mm 7 mps 754 mmHg 77%
    09:00 +15°C° 0 mm 8 mps 755 mmHg 74%
    10:00 +15°C° 0 mm 8 mps 755 mmHg 71%
    11:00 +15°C° 0 mm 8 mps 755 mmHg 64%
    12:00 +15°C° 0 mm 7 mps 756 mmHg 58%
    13:00 +15°C° 0 mm 7 mps 756 mmHg 51%
    14:00 +14°C° 0 mm 7 mps 757 mmHg 53%
    15:00 +14°C° 0 mm 6 mps 757 mmHg 55%
    16:00 +13°C° 0 mm 5 mps 757 mmHg 57%
    17:00 +12°C° 0 mm 5 mps 757 mmHg 63%
    18:00 +11°C° 0 mm 4 mps 758 mmHg 69%
    19:00 +9°C° 0 mm 3 mps 758 mmHg 75%
    20:00 +9°C° 0 mm 3 mps 758 mmHg 76%
    21:00 +9°C° 0 mm 3 mps 759 mmHg 78%
    22:00 +9°C° 0 mm 3 mps 759 mmHg 79%
    23:00 +8°C° 0 mm 2 mps 759 mmHg 80%

    29 September, Saturday

    Time Temperature Precipitation Wind Pressure Humidity
    00:00 +8°C° 0 mm 2 mps 760 mmHg 80%
    01:00 +8°C° 0 mm 2 mps 760 mmHg 81%
    02:00 +7°C° 0 mm 2 mps 760 mmHg 82%
    03:00 +8°C° 0 mm 1 mps 761 mmHg 83%
    04:00 +7°C° 0 mm 1 mps 761 mmHg 85%
    05:00 +8°C° 0 mm 1 mps 762 mmHg 83%
    06:00 +8°C° 0 mm 1 mps 762 mmHg 81%
    07:00 +9°C° 0 mm 1 mps 763 mmHg 78%
    08:00 +10°C° 0 mm 1 mps 763 mmHg 70%
    09:00 +11°C° 0 mm 1 mps 763 mmHg 61%
    10:00 +13°C° 0 mm 1 mps 764 mmHg 53%
    11:00 +13°C° 0 mm 1 mps 764 mmHg 50%
    12:00 +14°C° 0 mm 1 mps 764 mmHg 47%
    13:00 +14°C° 0 mm 2 mps 764 mmHg 44%
    14:00 +14°C° 0 mm 1 mps 764 mmHg 46%
    15:00 +14°C° 0 mm 1 mps 764 mmHg 48%
    16:00 +13°C° 0 mm 1 mps 764 mmHg 49%
    17:00 +12°C° 0 mm 1 mps 764 mmHg 52%
    18:00 +11°C° 0 mm 1 mps 765 mmHg 55%
    19:00 +10°C° 0 mm 1 mps 765 mmHg 58%
    20:00 +9°C° 0 mm 1 mps 765 mmHg 59%
    21:00 +8°C° 0 mm 2 mps 765 mmHg 61%
    22:00 +7°C° 0 mm 3 mps 765 mmHg 62%
    23:00 +7°C° 0 mm 3 mps 765 mmHg 63%

    30 September, Sunday

    Time Temperature Precipitation Wind Pressure Humidity
    00:00 +5°C° 0 mm 3 mps 765 mmHg 63%
    01:00 +5°C° 0 mm 4 mps 764 mmHg 63%
    02:00 +5°C° 0 mm 4 mps 764 mmHg 63%
    03:00 +5°C° 0 mm 4 mps 764 mmHg 63%
    04:00 +5°C° 0 mm 4 mps 764 mmHg 62%
    05:00 +5°C° 0 mm 4 mps 764 mmHg 61%
    06:00 +5°C° 0 mm 5 mps 763 mmHg 60%
    07:00 +6°C° 0 mm 5 mps 763 mmHg 59%
    08:00 +7°C° 0 mm 5 mps 763 mmHg 56%
    09:00 +9°C° 0 mm 5 mps 763 mmHg 52%
    10:00 +10°C° 0 mm 5 mps 763 mmHg 49%
    11:00 +12°C° 0 mm 5 mps 762 mmHg 48%
    12:00 +12°C° 0 mm 5 mps 762 mmHg 47%
    13:00 +13°C° 0 mm 5 mps 761 mmHg 45%
    14:00 +13°C° 0 mm 5 mps 761 mmHg 47%
    15:00 +12°C° 0 mm 4 mps 760 mmHg 49%
    16:00 +12°C° 0 mm 4 mps 760 mmHg 51%
    17:00 +11°C° 0 mm 4 mps 759 mmHg 52%
    18:00 +10°C° 0 mm 4 mps 759 mmHg 53%
    19:00 +8°C° 0 mm 4 mps 759 mmHg 54%
    20:00 +8°C° 0 mm 4 mps 759 mmHg 55%
    21:00 +8°C° 0 mm 4 mps 758 mmHg 56%
    22:00 +7°C° 0 mm 4 mps 758 mmHg 56%
    23:00 +7°C° 0 mm 4 mps 758 mmHg 57%
    Show more